Flag for Portugal Weather past 2 weeks in Amadora, Portugal

Now
48 °F

Clear.


Feels Like: 46 °F
Forecast: 43 / 56 °F
Wind: 5 mph from Northeast

Location: Lisbon Portela Airport

Current Time: Dec 22, 2014 at 1:26:43 AM

Latest Report: Dec 22, 2014 at 12:30 AM


Visibility: 10 mi

Pressure: 30.39 "Hg

Humidity: 87%

Dew point: 45 °F

Location of AmadoraLocation

Historic Weather in Amadora — Graph

°F

Amadora temperature yesterday

Maximum temperature yesterday: 57 °F (at 2:30 PM)
Minimum temperature yesterday: 41 °F (at 4:00 AM)
Average temperature yesterday: 49 °F

Past Weeks' High & Low Weather Summary

 TemperatureHumidityPressure
High61 °F (Dec 16, 12:00 PM)100% (Dec 11, 7:30 AM)30.54 "Hg (Dec 11, 7:30 AM)
Low37 °F (Dec 20, 6:30 AM)55% (Dec 8, 2:30 PM)29.65 "Hg (Dec 13, 3:30 PM)
Average51 °F84%30.29 "Hg
* Reported Midnight between Dec 6 and Dec 7 — Midnight between Dec 21 and Dec 22, Amadora, Weather by CustomWeather, © 2014

Note: Actual official high and low records may vary slightly from our data, if they occured in-between our weather recording intervals... More about our weather records

Advertising

Amadora weather history for previous 24 hours

 ConditionsComfort  
Time TempWeatherWind HumidityBarometerVisibility
12:00 AM
Dec 22
50 °FPassing clouds.6 mph82%30.39 "HgN/A
11:30 PM
Dec 21
48 °FClear.6 mph87%30.42 "Hg10 mi
11:00 PM50 °FPassing clouds.5 mph82%30.42 "HgN/A
10:30 PM50 °FPassing clouds.5 mph82%30.42 "HgN/A
10:00 PM50 °FClear.6 mph88%30.42 "Hg10 mi
9:00 PM54 °FClear.7 mph77%30.42 "Hg10 mi
8:30 PM52 °FClear.8 mph82%30.39 "Hg10 mi
8:00 PM52 °FClear.8 mph82%30.39 "Hg10 mi
7:30 PM52 °FClear.6 mph82%30.39 "Hg10 mi
7:00 PM52 °FClear.7 mph82%30.39 "Hg10 mi
6:30 PM52 °FClear.5 mph88%30.39 "Hg10 mi
6:00 PM52 °FPassing clouds.3 mph88%30.39 "HgN/A
5:30 PM54 °FClear.3 mph82%30.39 "Hg10 mi
5:00 PM57 °FPassing clouds.6 mph72%30.39 "HgN/A
4:30 PM57 °FSunny.6 mph77%30.39 "Hg10 mi
4:00 PM57 °FSunny.8 mph72%30.39 "Hg10 mi
3:30 PM57 °FPassing clouds.7 mph72%30.39 "HgN/A
3:00 PM57 °FPassing clouds.8 mph72%30.39 "HgN/A
2:30 PM57 °FSunny.9 mph72%30.39 "Hg10 mi
2:00 PM55 °FSunny.9 mph72%30.42 "Hg10 mi
1:30 PM54 °FPassing clouds.9 mph77%30.42 "HgN/A
1:00 PM54 °FSunny.8 mph77%30.45 "Hg10 mi
12:30 PM52 °FSunny.8 mph77%30.45 "Hg10 mi
12:00 PM52 °FSunny.9 mph82%30.48 "Hg10 mi
11:30 AM50 °FSunny.10 mph82%30.48 "Hg10 mi
11:00 AM50 °FSunny.12 mph76%30.48 "Hg10 mi
10:30 AM48 °FPassing clouds.13 mph82%30.48 "HgN/A
10:00 AM48 °FPassing clouds.8 mph87%30.48 "HgN/A
9:30 AM46 °FPassing clouds.7 mph93%30.48 "HgN/A
9:00 AM46 °FPassing clouds.9 mph87%30.48 "HgN/A
8:30 AM45 °FPassing clouds.8 mph93%30.45 "HgN/A
8:00 AM45 °FSunny.8 mph93%30.45 "Hg10 mi
7:30 AM45 °FClear.8 mph87%30.45 "Hg10 mi
7:00 AM43 °FClear.9 mph100%30.45 "Hg10 mi
6:30 AM41 °FPassing clouds.7 mph100%30.45 "Hg5 mi
6:00 AM41 °FPassing clouds.5 mph100%30.45 "Hg4 mi
5:30 AM41 °FQuite cool.5 mph100%30.45 "Hg2 mi
5:00 AM41 °FSleet. Fog.3 mph100%30.45 "Hg5 mi
4:30 AM41 °FPassing clouds.6 mph100%30.45 "Hg6 mi
4:00 AM41 °FSleet. Fog.3 mph100%30.45 "Hg6 mi
3:30 AM45 °FPassing clouds.3 mph93%30.45 "HgN/A
3:00 AM43 °FClear.3 mph100%30.45 "Hg10 mi
2:30 AM46 °FPassing clouds.5 mph87%30.45 "HgN/A
2:00 AM46 °FClear.6 mph87%30.45 "Hg10 mi
1:30 AM46 °FClear.5 mph87%30.45 "Hg10 mi
1:00 AM45 °FClear.6 mph100%30.45 "Hg10 mi
Weather by CustomWeather, © 2014

See weather overviewHow to use our weather pages